[[{"header":{"parameterUnit":"m.s-1","parameterCategory":2,"la1":30.2991,"la2":30.254,"lo1":-89.0895,"lo2":-89.0444,"dy":0.0017,"dx":0.0017,"nx":28,"ny":28,"refTime":"2025-01-18T09:00:00:Z","depth":"0","parameterNumber":2,"parameterNumberName":"U-component_of_CURRENTS"},"data":[0,0,0,0,0,0,0,0,0,0,0,0,0,0,0,0,0,0,0,0,0,0,0,0,0,0,0,0,0,0,0,0,0,0,0,0,0,0,0,0,0,0,0,0,0,0,0,0,0,0,0,0,0,0,0,0,0,0,0.3423,0.3423,0,0.3388,0.3388,0.3387,0.3301,0.3299,0.3298,0.3296,0.3262,0.3262,0.3263,0,0,0,0,0,0,0,0,0,0,0,0,0,0.3319,0.3322,0.3423,0.3423,0.3423,0.3388,0.3388,0.3387,0.3301,0.3299,0.3297,0.3296,0.3262,0.3262,0.3263,0,0,0,0,0,0,0,0,0,0,0,0,0,0.333,0.3323,0.3423,0.3378,0.3373,0.3389,0.3388,0.3387,0.3302,0.3299,0.3297,0.3295,0.3261,0.3262,0.3263,0.3316,0,0,0.3266,0.3266,0,0,0,0,0,0,0,0,0.333,0.3334,0.3385,0.3381,0.3376,0.3349,0.3338,0.3364,0.3302,0.3326,0.3296,0.3293,0.3294,0.3292,0.3287,0.3314,0.3313,0.3266,0.3266,0.3267,0.3267,0,0,0,0,0,0,0,0.3329,0.3334,0.3407,0.3385,0.338,0.3326,0.3326,0.3342,0.3322,0.3324,0.3318,0.3319,0.3291,0.3287,0.3286,0.3312,0.3266,0.3266,0.3267,0.3267,0.3346,0.3348,0,0,0,0,0,0,0.3347,0.3335,0.3408,0.3406,0.3349,0.3331,0.333,0.3358,0.3322,0.3315,0.3321,0.3315,0.3287,0.3285,0.3285,0.3363,0.3267,0.3267,0.3268,0.3345,0.3347,0.3348,0,0,0,0,0,0,0.3346,0.3355,0.3409,0.3369,0.3372,0.3336,0.3367,0.3359,0.3357,0.332,0.3312,0.3329,0.3285,0.3283,0.3297,0.336,0.3268,0.3268,0.3343,0.3345,0.3347,0.3508,0,0,0,0,0,0,0.3343,0.3356,0.3374,0.3372,0.3376,0.3449,0.337,0.336,0.3363,0.3354,0.3325,0.3319,0.3283,0.3296,0.3298,0.3359,0.3269,0.3341,0.3344,0.3347,0.3501,0.3516,0.3529,0,0,0,0,0,0.334,0.3375,0.3376,0.3384,0.3407,0.3453,0.3451,0.3412,0.3366,0.3395,0.3349,0.332,0.3316,0.3298,0.33,0.3363,0.3339,0.3343,0.3346,0.3495,0.3513,0.3528,0,0,0,0,0,0,0.3325,0.3371,0.337,0.3414,0.3449,0.3439,0.3454,0.3431,0.3418,0.3406,0.3347,0.334,0.3382,0.3344,0.3326,0.339,0.3322,0.3326,0.3434,0.3451,0.3464,0.3494,0.327,0,0,0,0,0,0.334,0.3379,0.3421,0.3452,0.3485,0.3475,0.3482,0.3476,0.3466,0.3457,0.3434,0.3404,0.3401,0.3399,0.3399,0.3439,0.3429,0.3475,0.349,0.3502,0.3524,0.3567,0.3588,0.336,0.336,0.336,0,0,0.3332,0.3366,0.3381,0.3452,0.347,0.3512,0.3474,0.3519,0.3539,0.3461,0.3481,0.3469,0.3423,0.3465,0.3479,0.3438,0.3559,0.3506,0.3517,0.3533,0.3574,0.3596,0.3616,0.3363,0.3362,0.3362,0,0,0.3348,0.3391,0.3437,0.348,0.3541,0.3551,0.3574,0.3606,0.3617,0.3645,0.3593,0.3622,0.3598,0.3601,0.3586,0.368,0.3641,0.3667,0.3759,0.3802,0.3822,0.3839,0.3855,0.3873,0.3664,0.3664,0.3665,0,0.3341,0.3406,0.3455,0.3513,0.3545,0.3573,0.3629,0.3652,0.3674,0.3702,0.3669,0.3678,0.3668,0.3708,0.3742,0.3721,0.3715,0.3704,0.3824,0.3841,0.3857,0.3868,0.3886,0.3673,0.3672,0.3671,0.367,0,0.3383,0.3445,0.3483,0.3562,0.3609,0.3673,0.3729,0.3778,0.3787,0.3801,0.387,0.3862,0.3855,0.3875,0.3838,0.3941,0.3893,0.385,0.3792,0.389,0.3894,0.391,0.3684,0.3681,0.3679,0.3677,0,0,0.3357,0.349,0.3501,0.3545,0.3651,0.3686,0.377,0.3856,0.3887,0.3941,0.3985,0.4037,0.4039,0.4025,0.4007,0.4066,0.4189,0.4013,0.4012,0.4046,0.4266,0.4166,0.4172,0.4162,0.4166,0.4169,0.4226,0,0.3384,0.3484,0.3551,0.363,0.3696,0.3768,0.3829,0.3903,0.3957,0.4011,0.4065,0.4092,0.4087,0.4091,0.4161,0.4177,0.4236,0.4176,0.415,0.4149,0.4063,0.4189,0.4197,0.4243,0.4241,0.4243,0.4245,0,0.3409,0.3475,0.3568,0.3681,0.3717,0.3751,0.3858,0.392,0.4026,0.4081,0.4149,0.4156,0.4258,0.4224,0.4338,0.4293,0.4305,0.4323,0.4324,0.4188,0.4079,0.4142,0.427,0.4307,0.4268,0.4266,0.4264,0,0.3353,0.3486,0.3552,0.3589,0.3716,0.3762,0.3817,0.393,0.3984,0.4113,0.4142,0.4256,0.4277,0.4356,0.4391,0.4368,0.4498,0.445,0.4375,0.4365,0.4347,0.4329,0.4525,0.4545,0.4544,0.4544,0.4544,0,0.3365,0.3406,0.3518,0.3547,0.3596,0.3712,0.377,0.3861,0.3977,0.4018,0.4145,0.4175,0.4313,0.4373,0.4425,0.4449,0.4516,0.443,0.4394,0.4397,0.4384,0.4387,0.4372,0.4546,0.4546,0.4545,0.4545,0,0.329,0.338,0.3431,0.3546,0.3572,0.359,0.3694,0.3731,0.3877,0.3931,0.3966,0.4125,0.4221,0.433,0.4452,0.445,0.4435,0.449,0.4472,0.4433,0.4361,0.4351,0.419,0.4052,0.4429,0.4427,0.4426,0,0.3265,0.3304,0.3368,0.3366,0.3408,0.3457,0.3486,0.3651,0.3691,0.3867,0.3868,0.4004,0.4096,0.4258,0.4334,0.4432,0.435,0.4427,0.4394,0.4399,0.4364,0.4132,0.401,0.444,0.4438,0.4437,0.4437,0,0.3191,0.3202,0.3213,0.3224,0.3237,0.3265,0.3321,0.3355,0.3535,0.363,0.3751,0.3863,0.4033,0.4169,0.4287,0.4334,0.4305,0.4398,0.445,0.4439,0.4158,0.3993,0.4335,0.4427,0.4428,0.4429,0.4429,0.443,0.3068,0.3033,0.3035,0.304,0.3063,0.3072,0.3084,0.3178,0.3273,0.3445,0.3585,0.3799,0.4084,0.4275,0.4246,0.4331,0.4161,0.4352,0.4355,0.4127,0.3953,0.4241,0.4244,0.4244,0.4244,0.4244,0.4244,0,0.2885,0.2866,0.2854,0.2847,0.2849,0.2909,0.2965,0.2991,0.3085,0.3345,0.351,0.39,0.4111,0.4292,0.4496,0.4421,0.4162,0.4351,0.4148,0.4035,0.4408,0.4377,0.4355,0.4355,0.4355,0.4355,0.4355,0.4355,0.2771,0.268,0.2685,0.2636,0.2659,0.2653,0.2681,0.2747,0.2932,0.3198,0.3488,0.3753,0.4259,0.4707,0.4788,0.4636,0.4326,0.4136,0.3997,0.4478,0.4481,0.4484,0.4459,0.4454,0.4454,0.3524,0.3519,0.3515]},{"header":{"parameterUnit":"m.s-1","parameterCategory":2,"la1":30.2991,"la2":30.254,"lo1":-89.0895,"lo2":-89.0444,"dy":0.0017,"dx":0.0017,"nx":28,"ny":28,"refTime":"2025-01-18T09:00:00:Z","depth":"0","parameterNumber":3,"parameterNumberName":"V-component_of_CURRENTS"},"data":[0,0,0,0,0,0,0,0,0,0,0,0,0,0,0,0,0,0,0,0,0,0,0,0,0,0,0,0,0,0,0,0,0,0,0,0,0,0,0,0,0,0,0,0,0,0,0,0,0,0,0,0,0,0,0,0,0,0,-0.0311,-0.0311,0,-0.035,-0.0351,-0.0352,-0.038,-0.0379,-0.0379,-0.0379,-0.048,-0.0483,-0.0486,0,0,0,0,0,0,0,0,0,0,0,0,0,-0.0273,-0.0274,-0.0311,-0.0311,-0.0311,-0.035,-0.0351,-0.0352,-0.038,-0.0379,-0.0379,-0.0379,-0.0479,-0.0483,-0.0486,0,0,0,0,0,0,0,0,0,0,0,0,0,-0.0302,-0.0274,-0.0311,-0.0327,-0.0329,-0.035,-0.0351,-0.0352,-0.038,-0.0379,-0.0379,-0.0379,-0.0478,-0.0482,-0.0486,-0.0514,0,0,-0.0499,-0.0501,0,0,0,0,0,0,0,0,-0.03,-0.0304,-0.0325,-0.0326,-0.0328,-0.0357,-0.0375,-0.0408,-0.038,-0.0364,-0.0379,-0.0379,-0.0443,-0.045,-0.0461,-0.0519,-0.0523,-0.05,-0.0502,-0.0504,-0.0505,0,0,0,0,0,0,0,-0.0298,-0.0302,-0.033,-0.0325,-0.0327,-0.0337,-0.0341,-0.0381,-0.0407,-0.0365,-0.0367,-0.0366,-0.0445,-0.0457,-0.0464,-0.0525,-0.0499,-0.0503,-0.0506,-0.0507,-0.0575,-0.0575,0,0,0,0,0,0,-0.0286,-0.03,-0.0329,-0.0331,-0.031,-0.0338,-0.0343,-0.0351,-0.0406,-0.0412,-0.0366,-0.0367,-0.045,-0.0459,-0.0468,-0.0464,-0.0504,-0.0508,-0.051,-0.0576,-0.0575,-0.0574,0,0,0,0,0,0,-0.0286,-0.0289,-0.0327,-0.0313,-0.0318,-0.0338,-0.0347,-0.0351,-0.0361,-0.0405,-0.0413,-0.037,-0.045,-0.0462,-0.0488,-0.047,-0.051,-0.0513,-0.0577,-0.0576,-0.0575,-0.0483,0,0,0,0,0,0,-0.0285,-0.0289,-0.0276,-0.0313,-0.0319,-0.0336,-0.0347,-0.0352,-0.036,-0.0361,-0.0412,-0.0421,-0.0451,-0.0481,-0.0492,-0.0476,-0.0517,-0.0578,-0.0576,-0.0575,-0.0487,-0.0479,-0.0473,0,0,0,0,0,-0.0283,-0.0263,-0.0275,-0.0277,-0.0305,-0.0336,-0.0341,-0.0356,-0.036,-0.0365,-0.0387,-0.0419,-0.0481,-0.0484,-0.0497,-0.0482,-0.0578,-0.0577,-0.0575,-0.0491,-0.0481,-0.0473,0,0,0,0,0,0,-0.0239,-0.0265,-0.0279,-0.0268,-0.03,-0.0339,-0.0333,-0.0353,-0.0376,-0.0377,-0.0416,-0.0427,-0.0446,-0.0478,-0.048,-0.0498,-0.0533,-0.0534,-0.0464,-0.0456,-0.0449,-0.0419,-0.052,0,0,0,0,0,-0.0223,-0.0212,-0.0258,-0.0245,-0.0263,-0.0301,-0.0308,-0.0333,-0.0361,-0.0371,-0.04,-0.0429,-0.0451,-0.0463,-0.0497,-0.0509,-0.0542,-0.0506,-0.0499,-0.0492,-0.0477,-0.0518,-0.0513,-0.0569,-0.0569,-0.057,0,0,-0.0198,-0.021,-0.0202,-0.0233,-0.0259,-0.0251,-0.0306,-0.0327,-0.0312,-0.038,-0.0365,-0.0414,-0.0451,-0.0459,-0.0469,-0.0481,-0.0493,-0.0491,-0.0484,-0.0472,-0.0516,-0.0511,-0.0506,-0.0568,-0.0569,-0.0569,0,0,-0.0142,-0.0164,-0.014,-0.0155,-0.019,-0.0218,-0.0223,-0.0272,-0.029,-0.0296,-0.0335,-0.0364,-0.0397,-0.0416,-0.0428,-0.0403,-0.046,-0.0421,-0.0353,-0.0393,-0.0388,-0.0385,-0.0411,-0.0411,-0.0408,-0.0408,-0.0408,0,-0.0107,-0.0087,-0.0139,-0.0117,-0.011,-0.0194,-0.017,-0.0196,-0.0241,-0.0246,-0.0276,-0.0319,-0.0365,-0.0358,-0.0351,-0.0384,-0.0418,-0.038,-0.0382,-0.038,-0.0378,-0.0406,-0.0407,-0.0404,-0.0404,-0.0405,-0.0405,0,-0.0033,-0.0013,-0.0003,0.0006,-0.0001,-0.0002,-0.0048,-0.0068,-0.0102,-0.0122,-0.0146,-0.0214,-0.0231,-0.026,-0.0297,-0.0303,-0.0335,-0.0375,-0.0401,-0.0366,-0.0398,-0.0401,-0.0397,-0.0399,-0.04,-0.0401,0,0,0.0036,0.0047,0.0055,0.0086,0.006,0.0064,0.0071,0.0053,0.008,0.0012,0.0041,-0.0025,-0.0081,-0.01,-0.0169,-0.0212,-0.0237,-0.0283,-0.0287,-0.0301,-0.0321,-0.0341,-0.0346,-0.0287,-0.0287,-0.0287,-0.0346,0,0.0107,0.0182,0.016,0.0239,0.027,0.0211,0.0235,0.0213,0.0181,0.0184,0.009,0.0087,-0.0012,-0.0028,-0.0087,-0.0205,-0.0241,-0.0217,-0.0359,-0.0363,-0.0379,-0.0349,-0.0361,-0.0416,-0.0349,-0.035,-0.035,0,0.0186,0.0232,0.0311,0.0359,0.0364,0.0395,0.0415,0.043,0.0397,0.0369,0.0331,0.0256,0.0185,0.009,-0.0071,-0.0056,-0.0172,-0.0269,-0.0274,-0.0323,-0.0387,-0.0443,-0.0423,-0.0673,-0.0354,-0.0354,-0.0354,0,0.0272,0.0337,0.0407,0.0431,0.0466,0.0483,0.0498,0.0489,0.0514,0.0492,0.05,0.0399,0.035,0.019,-0.0019,-0.0047,-0.0202,-0.0262,-0.038,-0.0382,-0.0434,-0.0441,-0.0665,-0.0359,-0.0359,-0.0359,-0.0359,0,0.0357,0.0423,0.0456,0.0509,0.0596,0.0587,0.0668,0.0658,0.0668,0.0716,0.0607,0.0607,0.0366,0.0239,0.0041,-0.0168,-0.0152,-0.0354,-0.0396,-0.0402,-0.0405,-0.0659,-0.0829,-0.0361,-0.0361,-0.036,-0.036,0,0.0439,0.0456,0.0557,0.0617,0.0638,0.0709,0.0774,0.0832,0.0824,0.0879,0.0873,0.0762,0.0597,0.0362,0.0107,-0.0076,-0.0442,-0.0356,-0.0339,-0.0378,-0.0723,-0.0887,-0.1147,-0.1301,-0.0491,-0.0492,-0.0492,0,0.0477,0.0535,0.0649,0.0704,0.073,0.0824,0.0879,0.0905,0.0969,0.0973,0.1002,0.0873,0.0799,0.0438,0.0093,-0.0219,-0.0478,-0.0439,-0.0497,-0.0733,-0.0947,-0.1047,-0.1166,-0.0531,-0.0532,-0.0533,-0.0534,0,0.0564,0.0604,0.0692,0.0803,0.0876,0.0982,0.1064,0.114,0.1168,0.1217,0.1238,0.1185,0.0832,0.0519,0.009,-0.016,-0.0656,-0.0464,-0.0725,-0.1005,-0.1115,-0.1284,-0.0497,-0.054,-0.054,-0.0539,-0.0539,-0.0539,0.0637,0.0701,0.08,0.0901,0.099,0.1106,0.1216,0.1311,0.1432,0.1525,0.1436,0.1432,0.0936,0.0351,-0.0034,-0.0706,-0.0737,-0.0909,-0.1086,-0.1161,-0.1325,-0.0538,-0.0621,-0.0621,-0.0621,-0.062,-0.062,0,0.0709,0.0771,0.0877,0.1005,0.1108,0.1144,0.1312,0.1448,0.1614,0.1702,0.1739,0.1516,0.0892,0.0256,-0.0638,-0.1183,-0.1418,-0.1512,-0.1683,-0.1777,-0.1083,-0.1099,-0.127,-0.1269,-0.1269,-0.1269,-0.1269,-0.1268,0.0751,0.0856,0.0894,0.1061,0.1155,0.1335,0.1447,0.1659,0.1799,0.1957,0.1987,0.1943,0.1471,-0.0239,-0.1422,-0.1752,-0.2217,-0.2322,-0.2541,-0.2094,-0.2051,-0.201,-0.2063,-0.2433,-0.2434,-0.3149,-0.3157,-0.3163]}],[{"header":{"parameterUnit":"m.s-1","parameterCategory":2,"la1":30.2991,"la2":30.254,"lo1":-89.0895,"lo2":-89.0444,"dy":0.0017,"dx":0.0017,"nx":28,"ny":28,"refTime":"2025-01-18T09:00:00:Z","depth":"2","parameterNumber":2,"parameterNumberName":"U-component_of_CURRENTS"},"data":[0,0,0,0,0,0,0,0,0,0,0,0,0,0,0,0,0,0,0,0,0,0,0,0,0,0,0,0,0,0,0,0,0,0,0,0,0,0,0,0,0,0,0,0,0,0,0,0,0,0,0,0,0,0,0,0,0,0,0.3253,0.3254,0,0.3275,0.3274,0.3274,0.3204,0.3202,0.3201,0.32,0.3186,0.3187,0.3188,0,0,0,0,0,0,0,0,0,0,0,0,0,0.3155,0.3157,0.3253,0.3254,0.3255,0.3275,0.3274,0.3274,0.3204,0.3202,0.3201,0.3199,0.3186,0.3187,0.3188,0,0,0,0,0,0,0,0,0,0,0,0,0,0.3182,0.3157,0.3253,0.3228,0.3227,0.3275,0.3274,0.3274,0.3204,0.3202,0.32,0.3198,0.3185,0.3187,0.3188,0.324,0,0,0.3193,0.3193,0,0,0,0,0,0,0,0,0.318,0.3185,0.3231,0.323,0.3229,0.3241,0.3235,0.3263,0.3205,0.3205,0.32,0.3197,0.3208,0.3208,0.3206,0.3239,0.3239,0.3193,0.3194,0.3194,0.3195,0,0,0,0,0,0,0,0.3179,0.3183,0.3254,0.3232,0.3231,0.3218,0.3219,0.324,0.3211,0.3205,0.3202,0.3217,0.3206,0.3205,0.3205,0.3238,0.3193,0.3194,0.3195,0.3196,0.3275,0.3277,0,0,0,0,0,0,0.3194,0.3182,0.3253,0.3255,0.3208,0.3222,0.3222,0.3233,0.3212,0.3209,0.3219,0.3214,0.3203,0.3203,0.3204,0.3292,0.3194,0.3196,0.3197,0.3274,0.3276,0.3277,0,0,0,0,0,0,0.3192,0.32,0.3253,0.3225,0.3232,0.3227,0.3239,0.3235,0.3246,0.3225,0.3219,0.3237,0.3201,0.3202,0.3223,0.329,0.3196,0.3198,0.3273,0.3275,0.3276,0.3451,0,0,0,0,0,0,0.3189,0.3199,0.3232,0.3226,0.3234,0.3267,0.3242,0.3237,0.3262,0.3256,0.3239,0.3234,0.32,0.3221,0.3225,0.329,0.3199,0.3271,0.3274,0.3276,0.3443,0.3458,0.3471,0,0,0,0,0,0.3185,0.3235,0.3234,0.3244,0.3273,0.3268,0.3269,0.3254,0.3266,0.3259,0.326,0.3235,0.3238,0.3224,0.3228,0.3295,0.327,0.3273,0.3276,0.3437,0.3455,0.3471,0,0,0,0,0,0,0.3201,0.3234,0.3231,0.3286,0.3273,0.3259,0.3282,0.3279,0.328,0.329,0.3262,0.3258,0.3306,0.3267,0.3253,0.3317,0.3247,0.3251,0.3368,0.3385,0.3399,0.3427,0.32,0,0,0,0,0,0.3227,0.326,0.3271,0.3299,0.3315,0.3309,0.332,0.3305,0.3304,0.3302,0.3315,0.3314,0.3321,0.3324,0.3324,0.3369,0.3357,0.3406,0.342,0.3433,0.3454,0.3492,0.3513,0.3286,0.3286,0.3286,0,0,0.3229,0.3259,0.3271,0.3305,0.3306,0.3341,0.3307,0.3326,0.3366,0.3307,0.339,0.338,0.3344,0.3389,0.3406,0.3365,0.349,0.3436,0.3448,0.3462,0.3498,0.352,0.354,0.3288,0.3288,0.3288,0,0,0.3249,0.3289,0.3327,0.3343,0.3371,0.3374,0.339,0.3414,0.3436,0.3491,0.3473,0.3506,0.3518,0.352,0.3514,0.3607,0.3571,0.3594,0.3689,0.3727,0.3748,0.3765,0.3785,0.3803,0.3592,0.3592,0.3592,0,0.326,0.331,0.3327,0.3378,0.3405,0.3402,0.3441,0.3478,0.3508,0.3543,0.3529,0.3592,0.3588,0.3638,0.3671,0.365,0.3644,0.3637,0.3751,0.3768,0.3783,0.3799,0.3816,0.3601,0.36,0.3599,0.3598,0,0.3299,0.3358,0.3385,0.3451,0.3476,0.3505,0.3557,0.3612,0.3655,0.3684,0.3764,0.3765,0.3779,0.3802,0.3773,0.3874,0.3827,0.3778,0.3722,0.3817,0.3826,0.3842,0.3613,0.361,0.3608,0.3605,0,0,0.3269,0.3391,0.3399,0.3441,0.3522,0.3532,0.3639,0.3704,0.3768,0.3835,0.3908,0.3974,0.397,0.3963,0.3945,0.4001,0.4127,0.3946,0.3944,0.3989,0.4201,0.4088,0.4093,0.4095,0.4098,0.4101,0.4168,0,0.3288,0.339,0.3446,0.3525,0.3583,0.3635,0.372,0.3788,0.3849,0.3932,0.3978,0.403,0.4029,0.4033,0.4102,0.4111,0.4173,0.4113,0.408,0.4079,0.3988,0.411,0.3777,0.3802,0.4182,0.4185,0.4187,0,0.3311,0.3379,0.3466,0.3575,0.3603,0.3648,0.3753,0.3828,0.3948,0.4005,0.4078,0.4091,0.4195,0.4163,0.4275,0.423,0.4243,0.4258,0.4259,0.4106,0.3996,0.3762,0.3814,0.4211,0.4209,0.4208,0.4206,0,0.3263,0.3391,0.3453,0.3492,0.3618,0.3662,0.3723,0.3841,0.3896,0.404,0.4067,0.4188,0.4211,0.429,0.4326,0.4305,0.4428,0.4381,0.4299,0.4289,0.3976,0.3933,0.4475,0.4475,0.4475,0.4474,0.4474,0,0.3278,0.3318,0.3435,0.3467,0.3518,0.3631,0.3688,0.3787,0.3903,0.3946,0.4077,0.4105,0.4245,0.4303,0.4358,0.4377,0.4447,0.4354,0.4316,0.4024,0.3986,0.4302,0.4281,0.4477,0.4476,0.4476,0.4476,0,0.3213,0.3301,0.335,0.3467,0.3495,0.3522,0.3617,0.3662,0.3807,0.3861,0.3897,0.4052,0.4148,0.4258,0.4377,0.4372,0.4429,0.4407,0.4055,0.3976,0.426,0.4248,0.4347,0.4344,0.4341,0.4339,0.4337,0,0.3165,0.3196,0.3291,0.329,0.3331,0.339,0.3421,0.3585,0.3625,0.3795,0.3796,0.393,0.4011,0.4164,0.4172,0.4253,0.4358,0.3978,0.3897,0.4303,0.4257,0.4248,0.4238,0.3549,0.3541,0.3535,0.3529,0,0.3038,0.3081,0.3139,0.3154,0.3169,0.3196,0.3259,0.3289,0.3469,0.3549,0.3668,0.3769,0.3875,0.3811,0.3891,0.389,0.3951,0.3845,0.4362,0.3635,0.3557,0.3509,0.3525,0.347,0.3476,0.348,0.3484,0.3486,0.2915,0.2892,0.2965,0.2978,0.3002,0.3009,0.302,0.3062,0.3137,0.3196,0.3402,0.3412,0.3505,0.344,0.3399,0.3351,0.3627,0.3502,0.352,0.3546,0.3444,0.3366,0.3223,0.3228,0.3231,0.3235,0.3238,0,0.273,0.2761,0.2758,0.2789,0.2757,0.2853,0.2908,0.2859,0.2866,0.2901,0.2973,0.2788,0.2776,0.286,0.2703,0.2776,0.2732,0.2682,0.2588,0.265,0.2704,0.2556,0.2102,0.2098,0.2094,0.2091,0,0,0.2638,0.2581,0.2586,0.2519,0.2567,0.2475,0.2497,0.2474,0.2455,0.2368,0.2317,0.249,0.2705,0.2289,0.2324,0.2173,0.2372,0.2091,0.3005,0.295,0.2998,0.3192,0.3036,0,0,0,0,0]},{"header":{"parameterUnit":"m.s-1","parameterCategory":2,"la1":30.2991,"la2":30.254,"lo1":-89.0895,"lo2":-89.0444,"dy":0.0017,"dx":0.0017,"nx":28,"ny":28,"refTime":"2025-01-18T09:00:00:Z","depth":"2","parameterNumber":3,"parameterNumberName":"V-component_of_CURRENTS"},"data":[0,0,0,0,0,0,0,0,0,0,0,0,0,0,0,0,0,0,0,0,0,0,0,0,0,0,0,0,0,0,0,0,0,0,0,0,0,0,0,0,0,0,0,0,0,0,0,0,0,0,0,0,0,0,0,0,0,0,-0.0162,-0.0164,0,-0.0256,-0.0257,-0.0257,-0.0295,-0.0295,-0.0295,-0.0296,-0.041,-0.0413,-0.0416,0,0,0,0,0,0,0,0,0,0,0,0,0,-0.0129,-0.0128,-0.0162,-0.0164,-0.0165,-0.0256,-0.0257,-0.0258,-0.0295,-0.0295,-0.0295,-0.0296,-0.0409,-0.0413,-0.0417,0,0,0,0,0,0,0,0,0,0,0,0,0,-0.0172,-0.0128,-0.0162,-0.0197,-0.0201,-0.0255,-0.0257,-0.0258,-0.0295,-0.0295,-0.0296,-0.0296,-0.0408,-0.0413,-0.0417,-0.0443,0,0,-0.0431,-0.0433,0,0,0,0,0,0,0,0,-0.0169,-0.0172,-0.0191,-0.0195,-0.02,-0.0267,-0.0287,-0.0322,-0.0295,-0.0257,-0.0296,-0.0296,-0.0366,-0.0374,-0.0387,-0.0448,-0.0453,-0.0431,-0.0434,-0.0436,-0.0437,0,0,0,0,0,0,0,-0.0166,-0.0169,-0.0196,-0.0192,-0.0198,-0.0247,-0.0252,-0.0294,-0.0308,-0.026,-0.0264,-0.0279,-0.0368,-0.0382,-0.039,-0.0455,-0.0431,-0.0435,-0.0438,-0.044,-0.0509,-0.0508,0,0,0,0,0,0,-0.0154,-0.0166,-0.0193,-0.0199,-0.0188,-0.0247,-0.0253,-0.0243,-0.0307,-0.0318,-0.0279,-0.028,-0.0375,-0.0385,-0.0394,-0.0399,-0.0436,-0.044,-0.0443,-0.051,-0.0509,-0.0508,0,0,0,0,0,0,-0.0153,-0.0155,-0.019,-0.0189,-0.0197,-0.0247,-0.0236,-0.0245,-0.0261,-0.0322,-0.0332,-0.0287,-0.0375,-0.0388,-0.042,-0.0405,-0.0442,-0.0446,-0.0511,-0.051,-0.0509,-0.0429,0,0,0,0,0,0,-0.0151,-0.0153,-0.015,-0.0187,-0.0197,-0.018,-0.0237,-0.0246,-0.0272,-0.0275,-0.0333,-0.0343,-0.0376,-0.0413,-0.0424,-0.0412,-0.045,-0.0512,-0.051,-0.0509,-0.0432,-0.0425,-0.0418,0,0,0,0,0,-0.0149,-0.0137,-0.0149,-0.0153,-0.0187,-0.0179,-0.0186,-0.0223,-0.0272,-0.0246,-0.0307,-0.0342,-0.041,-0.0416,-0.043,-0.0418,-0.0513,-0.0511,-0.0509,-0.0436,-0.0426,-0.0419,0,0,0,0,0,0,-0.0124,-0.0141,-0.0155,-0.0149,-0.0146,-0.0185,-0.0188,-0.0223,-0.0254,-0.0277,-0.0339,-0.0352,-0.0376,-0.0407,-0.0411,-0.0432,-0.0464,-0.0465,-0.0404,-0.0396,-0.0389,-0.0358,-0.0453,0,0,0,0,0,-0.0116,-0.0098,-0.0122,-0.0107,-0.0112,-0.0154,-0.0167,-0.0188,-0.0223,-0.0239,-0.0294,-0.0347,-0.0379,-0.0394,-0.0431,-0.0445,-0.0477,-0.0444,-0.0437,-0.0431,-0.0413,-0.0454,-0.0449,-0.0502,-0.0502,-0.0502,0,0,-0.0099,-0.0109,-0.0099,-0.0099,-0.0113,-0.0102,-0.0159,-0.0164,-0.0166,-0.0249,-0.0283,-0.0334,-0.038,-0.0393,-0.0405,-0.0415,-0.0431,-0.0428,-0.0423,-0.0409,-0.0451,-0.0446,-0.0441,-0.05,-0.0501,-0.0501,0,0,-0.0048,-0.0065,-0.0034,-0.0029,-0.0044,-0.0068,-0.0067,-0.0111,-0.0136,-0.0164,-0.0232,-0.0266,-0.0325,-0.0347,-0.0366,-0.0342,-0.04,-0.036,-0.0294,-0.0333,-0.0329,-0.0326,-0.0355,-0.0356,-0.0348,-0.0348,-0.0348,0,-0.0029,0.0006,-0.0021,0.0007,0.0014,-0.0048,-0.0012,-0.0048,-0.0101,-0.0113,-0.0156,-0.0243,-0.0295,-0.0298,-0.0293,-0.0325,-0.0359,-0.0323,-0.0324,-0.0321,-0.0319,-0.0351,-0.0352,-0.0344,-0.0344,-0.0345,-0.0345,0,0.0044,0.0069,0.0088,0.0107,0.0114,0.0138,0.0093,0.0069,0.0009,-0.0023,-0.0056,-0.0133,-0.0168,-0.0198,-0.0243,-0.0249,-0.0281,-0.0318,-0.0344,-0.0309,-0.0345,-0.0347,-0.0338,-0.0339,-0.0341,-0.0342,0,0,0.0114,0.0137,0.0147,0.0178,0.017,0.019,0.0177,0.0176,0.0175,0.0099,0.0106,0.0027,-0.0024,-0.0049,-0.0118,-0.0161,-0.019,-0.023,-0.0234,-0.0255,-0.0275,-0.0293,-0.0298,-0.0237,-0.0237,-0.0237,-0.0304,0,0.019,0.0265,0.0251,0.0327,0.0365,0.0317,0.0322,0.0301,0.0264,0.0245,0.0158,0.0136,0.0036,0.0018,-0.004,-0.0157,-0.0194,-0.0168,-0.0308,-0.0312,-0.0329,-0.03,-0.0273,-0.033,-0.0307,-0.0308,-0.0308,0,0.0268,0.0315,0.0398,0.0446,0.0457,0.0478,0.0493,0.0498,0.0453,0.0422,0.038,0.0302,0.023,0.0136,-0.0026,-0.001,-0.0126,-0.0223,-0.0228,-0.027,-0.0334,-0.0362,-0.0336,-0.0313,-0.0313,-0.0313,-0.0312,0,0.0345,0.0416,0.0489,0.0509,0.0543,0.0561,0.0572,0.0554,0.0576,0.0542,0.0547,0.0443,0.0392,0.0233,0.0025,-0.0003,-0.0159,-0.0218,-0.0335,-0.0338,-0.0352,-0.0355,-0.0315,-0.0315,-0.0315,-0.0314,-0.0314,0,0.0428,0.0494,0.0527,0.0575,0.0658,0.065,0.0727,0.0711,0.0717,0.076,0.065,0.0646,0.0408,0.0281,0.0083,-0.0126,-0.011,-0.031,-0.0352,-0.0323,-0.0323,-0.0341,-0.0343,-0.0317,-0.0316,-0.0316,-0.0315,0,0.05,0.052,0.062,0.0678,0.0698,0.076,0.083,0.0878,0.0867,0.0917,0.0911,0.0798,0.0632,0.0399,0.0145,-0.0035,-0.0239,-0.0315,-0.026,-0.0294,-0.0408,-0.0406,-0.0449,-0.045,-0.0451,-0.0452,-0.0453,0,0.056,0.061,0.0704,0.0757,0.0785,0.0871,0.0924,0.0949,0.1008,0.1008,0.1035,0.0905,0.0826,0.0467,0.0136,-0.0174,-0.0229,-0.0357,-0.0406,-0.0383,-0.042,-0.0416,-0.0412,-0.0397,-0.0397,-0.0397,-0.0397,0,0.0672,0.0683,0.0745,0.0851,0.0922,0.1025,0.1103,0.1177,0.1202,0.1246,0.1262,0.1205,0.0863,0.0556,0.0134,-0.0089,-0.0309,-0.037,-0.0355,-0.0363,-0.0339,-0.0373,-0.037,-0.0398,-0.0398,-0.0398,-0.0398,-0.0398,0.0742,0.0796,0.0847,0.0942,0.103,0.1144,0.1254,0.1338,0.1452,0.1517,0.1432,0.1353,0.0993,0.0462,0.0088,-0.031,-0.0303,-0.0452,-0.045,-0.0448,-0.0427,-0.0404,-0.0472,-0.0472,-0.0472,-0.0473,-0.0473,0,0.0809,0.0838,0.0937,0.1043,0.1155,0.118,0.1344,0.147,0.1623,0.1631,0.1642,0.1312,0.094,0.0526,-0.0053,-0.0399,-0.0435,-0.0517,-0.0482,-0.0478,-0.0475,-0.0454,-0.0507,-0.0509,-0.0509,-0.051,0,0,0.0824,0.0906,0.0944,0.1116,0.1202,0.1396,0.1508,0.167,0.1746,0.1804,0.1733,0.1572,0.1062,0.0642,0.0167,-0.0167,-0.0247,-0.0242,-0.0178,-0.0076,-0.0069,-0.0402,-0.0361,0,0,0,0,0]}],[{"header":{"parameterUnit":"m.s-1","parameterCategory":2,"la1":30.2991,"la2":30.254,"lo1":-89.0895,"lo2":-89.0444,"dy":0.0017,"dx":0.0017,"nx":28,"ny":28,"refTime":"2025-01-18T09:00:00:Z","depth":"4","parameterNumber":2,"parameterNumberName":"U-component_of_CURRENTS"},"data":[0,0,0,0,0,0,0,0,0,0,0,0,0,0,0,0,0,0,0,0,0,0,0,0,0,0,0,0,0,0,0,0,0,0,0,0,0,0,0,0,0,0,0,0,0,0,0,0,0,0,0,0,0,0,0,0,0,0,0.1413,0.1414,0,0.1505,0.1505,0.1506,0.1666,0.1669,0.1673,0.1676,0.177,0.177,0.1769,0,0,0,0,0,0,0,0,0,0,0,0,0,0.1281,0.1283,0.1413,0.1415,0.1416,0.1505,0.1505,0.1506,0.1665,0.1669,0.1674,0.1678,0.1771,0.177,0.1769,0,0,0,0,0,0,0,0,0,0,0,0,0,0.1346,0.1283,0.1412,0.1511,0.1521,0.1505,0.1505,0.1506,0.1664,0.1669,0.1675,0.168,0.1771,0.177,0.1769,0.1653,0,0,0.1765,0.1764,0,0,0,0,0,0,0,0,0.1342,0.135,0.1495,0.1504,0.1516,0.1585,0.1494,0.1558,0.1663,0.1603,0.1676,0.1682,0.1709,0.1713,0.1709,0.1658,0.1662,0.1765,0.1764,0.1763,0.1763,0,0,0,0,0,0,0,0.1338,0.1346,0.1443,0.1496,0.1509,0.1519,0.1534,0.1506,0.1619,0.1609,0.1622,0.1641,0.1714,0.171,0.1713,0.1663,0.1765,0.1764,0.1763,0.1762,0.1854,0.1857,0,0,0,0,0,0,0.1338,0.1342,0.144,0.1446,0.1448,0.1518,0.1534,0.1552,0.162,0.1638,0.1636,0.1648,0.1709,0.1714,0.1717,0.1873,0.1763,0.1762,0.1761,0.1851,0.1855,0.1858,0,0,0,0,0,0,0.1335,0.1345,0.1436,0.1402,0.1415,0.1516,0.1533,0.1551,0.1621,0.1642,0.166,0.1697,0.1714,0.1718,0.1784,0.1868,0.1762,0.176,0.1847,0.1852,0.1857,0.2,0,0,0,0,0,0,0.133,0.1343,0.1367,0.1401,0.1417,0.1488,0.1529,0.1549,0.1622,0.1641,0.1697,0.1708,0.1718,0.1786,0.1783,0.1864,0.1759,0.1843,0.185,0.1855,0.1991,0.2009,0.2025,0,0,0,0,0,0.1325,0.1348,0.1367,0.138,0.1442,0.149,0.1499,0.1583,0.1621,0.1661,0.1718,0.1711,0.1823,0.1786,0.1782,0.1865,0.184,0.1848,0.1855,0.1984,0.2006,0.2024,0,0,0,0,0,0,0.1341,0.1367,0.139,0.1431,0.1481,0.1522,0.156,0.1601,0.1668,0.1699,0.1722,0.1736,0.1828,0.1813,0.1772,0.1912,0.184,0.1846,0.194,0.196,0.1976,0.2016,0.1758,0,0,0,0,0,0.1338,0.1364,0.1394,0.1448,0.1454,0.1505,0.1538,0.1594,0.1649,0.1687,0.1737,0.1788,0.1832,0.1875,0.1894,0.1944,0.1927,0.2004,0.2021,0.2035,0.2067,0.2103,0.2126,0.1882,0.1882,0.1882,0,0,0.1363,0.1389,0.1406,0.1452,0.1483,0.1529,0.1541,0.1608,0.1677,0.1676,0.1795,0.1829,0.1853,0.1943,0.1984,0.1958,0.2094,0.2044,0.2056,0.2081,0.2113,0.2137,0.2158,0.1887,0.1886,0.1885,0,0,0.1413,0.1437,0.1456,0.1495,0.1552,0.158,0.1611,0.1671,0.1727,0.1812,0.1853,0.1956,0.1998,0.2073,0.21,0.2208,0.2166,0.2217,0.235,0.2385,0.2405,0.2423,0.2419,0.2435,0.2243,0.2243,0.2243,0,0.1436,0.1473,0.148,0.152,0.1571,0.1612,0.1665,0.1709,0.181,0.1862,0.1882,0.2044,0.207,0.2207,0.228,0.2251,0.2242,0.227,0.2407,0.2424,0.2439,0.2431,0.2447,0.2251,0.225,0.2249,0.2248,0,0.1492,0.1534,0.1556,0.1616,0.1678,0.173,0.1788,0.1858,0.1927,0.1992,0.2141,0.2203,0.2333,0.2352,0.2356,0.2506,0.2452,0.2406,0.2354,0.2473,0.2455,0.247,0.2262,0.2259,0.2257,0.2255,0,0,0.1499,0.1563,0.1585,0.1621,0.1727,0.1779,0.1886,0.1981,0.2061,0.2187,0.2317,0.2456,0.2538,0.2579,0.2617,0.2663,0.277,0.2609,0.2607,0.2602,0.2827,0.2639,0.2635,0.2745,0.2748,0.2751,0.2764,0,0.1533,0.1604,0.1652,0.1767,0.1797,0.1881,0.197,0.2087,0.2184,0.2313,0.2429,0.2562,0.2608,0.2695,0.2775,0.2759,0.2817,0.277,0.2716,0.2715,0.2531,0.2649,0.2763,0.2774,0.2777,0.2779,0.2781,0,0.1553,0.1609,0.1703,0.1804,0.1827,0.1936,0.2097,0.2183,0.2353,0.2424,0.2626,0.2708,0.2897,0.2865,0.299,0.2958,0.2942,0.2902,0.29,0.269,0.2554,0.2634,0.2806,0.2804,0.2802,0.28,0.2799,0,0.1533,0.1636,0.1715,0.1763,0.1895,0.1989,0.2089,0.2257,0.2337,0.2543,0.2637,0.2846,0.2954,0.3014,0.3033,0.3022,0.3065,0.3024,0.2839,0.2822,0.292,0.29,0.3093,0.3093,0.3093,0.3093,0.3093,0,0.1513,0.1577,0.1725,0.178,0.1896,0.2016,0.217,0.2265,0.2449,0.2551,0.2745,0.2852,0.2992,0.3052,0.306,0.3002,0.3115,0.2891,0.2832,0.2976,0.2963,0.2927,0.2908,0.3094,0.3094,0.3093,0.3093,0,0.145,0.1533,0.1633,0.1816,0.1887,0.1993,0.2211,0.2293,0.2472,0.2621,0.2701,0.2884,0.295,0.3024,0.305,0.2994,0.2954,0.2888,0.303,0.2973,0.2682,0.2671,0.2716,0.271,0.2705,0.2701,0.2697,0,0.1401,0.1449,0.1668,0.1738,0.1836,0.2011,0.2103,0.2299,0.2383,0.2611,0.2652,0.2798,0.2895,0.2793,0.288,0.2864,0.2825,0.2783,0.2776,0.2715,0.2654,0.265,0.2646,0.2689,0.2688,0.2686,0.2685,0,0.133,0.1435,0.1533,0.1673,0.1805,0.1908,0.2071,0.2124,0.2316,0.2505,0.2549,0.2605,0.2642,0.2674,0.2651,0.2647,0.2812,0.2729,0.2741,0.2734,0.2682,0.2626,0.2627,0.2667,0.267,0.2671,0.2672,0,0.1307,0.1345,0.1485,0.1579,0.1702,0.1753,0.187,0.1963,0.2071,0.2319,0.2322,0.2465,0.2599,0.2559,0.256,0.2527,0.2511,0.2432,0.2459,0.248,0.24,0.2299,0.2144,0,0,0,0,0,0.1257,0.1279,0.1365,0.146,0.1551,0.1615,0.1793,0.1906,0.2112,0.2079,0.2199,0.2233,0.2265,0.2344,0.2264,0.2466,0.2512,0.2363,0.2434,0.2568,0.2588,0.2518,0,0,0,0,0,0,0.1241,0.1319,0.1328,0.1309,0.1327,0.1415,0.1512,0.1661,0.1661,0.1882,0.1904,0.2082,0.2135,0.2258,0.2206,0.223,0.2229,0.2466,0.246,0.2556,0.2575,0.2591,0.2526,0,0,0,0,0]},{"header":{"parameterUnit":"m.s-1","parameterCategory":2,"la1":30.2991,"la2":30.254,"lo1":-89.0895,"lo2":-89.0444,"dy":0.0017,"dx":0.0017,"nx":28,"ny":28,"refTime":"2025-01-18T09:00:00:Z","depth":"4","parameterNumber":3,"parameterNumberName":"V-component_of_CURRENTS"},"data":[0,0,0,0,0,0,0,0,0,0,0,0,0,0,0,0,0,0,0,0,0,0,0,0,0,0,0,0,0,0,0,0,0,0,0,0,0,0,0,0,0,0,0,0,0,0,0,0,0,0,0,0,0,0,0,0,0,0,0.0296,0.0295,0,0.0226,0.0225,0.0225,0.0176,0.0176,0.0175,0.0175,0.0117,0.0116,0.0115,0,0,0,0,0,0,0,0,0,0,0,0,0,0.0294,0.0295,0.0296,0.0295,0.0294,0.0226,0.0225,0.0224,0.0176,0.0176,0.0175,0.0175,0.0118,0.0116,0.0115,0,0,0,0,0,0,0,0,0,0,0,0,0,0.0268,0.0295,0.0296,0.0261,0.0257,0.0226,0.0225,0.0224,0.0177,0.0176,0.0175,0.0174,0.0118,0.0116,0.0115,0.0121,0,0,0.011,0.0109,0,0,0,0,0,0,0,0,0.027,0.0269,0.0267,0.0263,0.0258,0.0207,0.0203,0.019,0.0177,0.0209,0.0175,0.0174,0.0148,0.0144,0.0135,0.0118,0.0116,0.011,0.0109,0.0108,0.0108,0,0,0,0,0,0,0,0.0272,0.0271,0.027,0.0266,0.0261,0.0215,0.0212,0.02,0.0185,0.0206,0.0202,0.0191,0.0146,0.0136,0.0133,0.0115,0.011,0.0109,0.0108,0.0107,0.0031,0.003,0,0,0,0,0,0,0.0283,0.0274,0.0272,0.0268,0.026,0.0216,0.0212,0.0226,0.0185,0.0177,0.0192,0.0189,0.014,0.0135,0.0131,0.0104,0.0108,0.0107,0.0106,0.0032,0.003,0.0029,0,0,0,0,0,0,0.0284,0.0285,0.0275,0.0266,0.0261,0.0218,0.0233,0.0225,0.0211,0.0174,0.0167,0.0185,0.0139,0.0133,0.011,0.0103,0.0106,0.0105,0.0033,0.0031,0.003,0.0071,0,0,0,0,0,0,0.0285,0.0286,0.0304,0.0268,0.0262,0.0254,0.0233,0.0224,0.0205,0.0201,0.0166,0.016,0.0138,0.0112,0.0108,0.0101,0.0103,0.0034,0.0032,0.003,0.0071,0.0071,0.0071,0,0,0,0,0,0.0285,0.0308,0.0306,0.0305,0.0287,0.0254,0.0247,0.0213,0.0206,0.0199,0.0172,0.0161,0.0095,0.0111,0.0106,0.0098,0.0035,0.0033,0.003,0.0071,0.0071,0.0071,0,0,0,0,0,0,0.0314,0.0304,0.0301,0.032,0.0289,0.0245,0.0243,0.0218,0.0192,0.0193,0.0159,0.0151,0.0122,0.0103,0.012,0.0065,0.0059,0.0056,0.0091,0.0091,0.0091,0.012,0.0102,0,0,0,0,0,0.0331,0.0343,0.0319,0.0327,0.0327,0.0288,0.0273,0.0246,0.0216,0.0204,0.0177,0.0144,0.0109,0.0096,0.0066,0.005,0.0024,0.0034,0.0034,0.0035,0.0052,-0.0004,-0.0007,0.0021,0.0021,0.0021,0,0,0.0337,0.0336,0.0339,0.0333,0.0317,0.031,0.0278,0.0258,0.0246,0.0204,0.019,0.0148,0.0103,0.0075,0.006,0.006,0.001,0.0032,0.0033,0.005,-0.0007,-0.0009,-0.0012,0.0019,0.002,0.002,0,0,0.0351,0.0367,0.0383,0.037,0.0349,0.0324,0.032,0.0283,0.0269,0.0246,0.0203,0.016,0.0122,0.0081,0.0057,0.004,0.001,0.002,0.0051,-0.0004,-0.0006,-0.0008,-0.0048,-0.0054,0.0023,0.0023,0.0023,0,0.0365,0.0388,0.0375,0.0387,0.0385,0.0335,0.0346,0.0319,0.0271,0.0263,0.0248,0.0166,0.0126,0.0082,0.0067,0.0043,0.0011,0.006,-0.0001,-0.0004,-0.0007,-0.0048,-0.0055,0.0025,0.0025,0.0024,0.0024,0,0.0379,0.0408,0.0417,0.0424,0.0414,0.0412,0.0382,0.0362,0.0339,0.0307,0.0266,0.0205,0.016,0.0124,0.0095,0.0046,0.003,0.0006,0.0008,-0.0006,-0.005,-0.0057,0.0027,0.0027,0.0026,0.0026,0,0,0.0404,0.0427,0.0436,0.0457,0.0443,0.0435,0.0424,0.0401,0.0396,0.0341,0.0333,0.0252,0.0219,0.0188,0.0131,0.0077,0.002,0.004,0.0036,0.0017,-0.0094,-0.008,-0.0088,-0.0016,-0.0017,-0.0018,-0.0116,0,0.0429,0.0473,0.047,0.0499,0.0528,0.0494,0.0488,0.0455,0.0426,0.04,0.033,0.0299,0.0243,0.0221,0.0158,0.0052,0.0001,0.005,-0.0091,-0.0094,-0.0067,-0.0095,-0.0022,-0.0122,-0.0124,-0.0126,-0.0126,0,0.0454,0.0488,0.0539,0.0566,0.0575,0.0576,0.0571,0.0559,0.0507,0.0484,0.0437,0.0382,0.0299,0.0257,0.0092,0.0124,0.003,-0.0054,-0.006,-0.006,-0.0095,-0.0108,-0.0141,-0.014,-0.0139,-0.0138,-0.0137,0,0.0489,0.0536,0.0584,0.0595,0.061,0.0626,0.0625,0.0592,0.0597,0.0548,0.0539,0.0434,0.0388,0.0253,0.009,0.0088,-0.0093,-0.012,-0.0195,-0.0195,-0.0193,-0.019,-0.0226,-0.0226,-0.0226,-0.0225,-0.0225,0,0.0527,0.0568,0.0612,0.064,0.0687,0.0687,0.0721,0.0693,0.0681,0.0687,0.06,0.0575,0.0383,0.026,0.011,-0.0062,-0.0078,-0.0185,-0.022,-0.0176,-0.017,-0.0199,-0.0195,-0.0229,-0.0228,-0.0228,-0.0227,0,0.0564,0.059,0.0646,0.069,0.071,0.0747,0.079,0.081,0.0789,0.0795,0.0788,0.0671,0.0516,0.0323,0.0093,-0.0026,-0.02,-0.0255,-0.0181,-0.0211,-0.0269,-0.0261,-0.0344,-0.0344,-0.0344,-0.0345,-0.0345,0,0.0586,0.0625,0.0688,0.0727,0.0758,0.0818,0.0857,0.0862,0.0889,0.0853,0.0858,0.0729,0.0629,0.0327,0.0114,-0.0163,-0.0203,-0.0295,-0.0291,-0.0255,-0.0282,-0.0274,-0.0266,-0.0345,-0.0345,-0.0345,-0.0346,0,0.0627,0.0648,0.0693,0.0779,0.0839,0.0902,0.0965,0.0989,0.0995,0.0975,0.0917,0.0764,0.059,0.0348,0.0133,-0.0069,-0.024,-0.0299,-0.03,-0.0297,-0.0258,-0.0282,-0.0274,-0.0347,-0.0346,-0.0346,-0.0346,0,0.0653,0.0681,0.0741,0.0818,0.0897,0.0972,0.0995,0.103,0.105,0.1011,0.0989,0.0801,0.0683,0.0397,0.0196,0.0002,-0.0049,-0.0122,-0.0133,-0.0134,-0.0048,0.0033,0.0008,0,0,0,0,0,0.0672,0.0709,0.0777,0.0862,0.0949,0.1008,0.1061,0.1079,0.1086,0.1059,0.1028,0.0871,0.058,0.0452,0.0264,0.0181,-0.009,-0.0048,-0.0181,-0.0352,-0.0351,-0.0285,0,0,0,0,0,0,0.0677,0.0742,0.0775,0.0898,0.098,0.1082,0.1125,0.1129,0.1108,0.1079,0.0932,0.084,0.0561,0.0711,0.0275,0.0213,0.0102,-0.0187,-0.0191,-0.0353,-0.0352,-0.0351,-0.0282,0,0,0,0,0]}]]